Storm Lake, IA

12:02 AM CDT on May 27, 2017 (GMT -0500)
Storm Lake Municipal

Weather History for KSLB - November, 2014

Change the Weather History Date:

Thursday, November 20, 2014

  Actual Average Record
Temperature  
Mean Temperature 14 °F -  
Max Temperature 21 °F 42 °F 68 °F (2003)
Min Temperature 6 °F 26 °F 3 °F (2000)
Degree Days  
Heating Degree Days 52    
Moisture  
Dew Point 8 °F    
Average Humidity 77    
Maximum Humidity 85    
Minimum Humidity 63    
Precipitation  
Precipitation 0.00 in - - ()
Sea Level Pressure  
Sea Level Pressure 30.17 in    
Wind  
Wind Speed 10 mph (WNW)    
Max Wind Speed 18 mph    
Max Gust Speed 14 mph    
Visibility 10 miles    
Events      
Averages and records for this station are not official NWS values.
T = Trace of Precipitation, MM = Missing Value Source: NWS Daily Summary

Daily Weather History Graph

Daily Weather History Graph

Search for Another Location

Airport or City:

Trip Planner

Search our weather history database for the weather conditions in past years. The results will help you decide how hot, cold, wet, or windy it might be!

Date:

Astronomy

Nov. 20, 2014 Rise Set
Actual Time 7:18 AM CST 4:54 PM CST
Civil Twilight 6:47 AM CST 5:25 PM CST
Nautical Twilight 6:13 AM CST 5:59 PM CST
Astronomical Twilight 5:39 AM CST 6:32 PM CST
Moon 5:11 AM CST (11/20) 4:01 PM CST (11/20)
Length of Visible Light 10h 37m
Length of Day
9h 35m
Waning Crescent, 4% of the Moon is Illuminated
Nov 20
Waning Crescent
Nov 22
New
Nov 29
First Quarter
Dec 6
Full
Dec 14
Last Quarter

Hourly Weather History & Observations

Time (CST) Temp. Windchill Dew Point Humidity Pressure Visibility Wind Dir Wind Speed Gust Speed Precip Events Conditions
12:15 AM 12.2 °F -0.2 °F 6.8 °F 79% 30.11 in 10.0 mi WNW 9.2 mph - N/A   Clear
12:35 AM 12.2 °F -1.0 °F 8.6 °F 85% 30.10 in 10.0 mi WNW 10.4 mph - N/A   Clear
12:55 AM 12.2 °F -0.2 °F 6.8 °F 79% 30.10 in 10.0 mi West 9.2 mph - N/A   Clear
1:15 AM 12.2 °F -1.0 °F 8.6 °F 85% 30.10 in 10.0 mi West 10.4 mph - N/A   Partly Cloudy
1:35 AM 14.0 °F 0.5 °F 8.6 °F 79% 30.10 in 10.0 mi WNW 11.5 mph - N/A   Clear
1:55 AM 14.0 °F 1.2 °F 8.6 °F 79% 30.10 in 10.0 mi WNW 10.4 mph - N/A   Scattered Clouds
2:15 AM 14.0 °F 0.5 °F 8.6 °F 79% 30.10 in 10.0 mi WNW 11.5 mph - N/A   Partly Cloudy
2:35 AM 14.0 °F -0.2 °F 8.6 °F 79% 30.10 in 10.0 mi WNW 12.7 mph - N/A   Clear
2:55 AM 14.0 °F -0.2 °F 8.6 °F 79% 30.10 in 10.0 mi WNW 12.7 mph - N/A   Clear
3:15 AM 14.0 °F -0.2 °F 8.6 °F 79% 30.10 in 10.0 mi WNW 12.7 mph - N/A   Clear
3:35 AM 14.0 °F -0.8 °F 8.6 °F 79% 30.10 in 10.0 mi WNW 13.8 mph - N/A   Clear
3:55 AM 12.2 °F -3.1 °F 6.8 °F 79% 30.10 in 10.0 mi WNW 13.8 mph - N/A   Clear
4:15 AM 12.2 °F -1.8 °F 6.8 °F 79% 30.10 in 10.0 mi WNW 11.5 mph - N/A   Clear
4:35 AM 10.4 °F -4.1 °F 5.0 °F 79% 30.10 in 10.0 mi WNW 11.5 mph - N/A   Clear
4:55 AM 10.4 °F -4.1 °F 6.8 °F 85% 30.11 in 10.0 mi WNW 11.5 mph - N/A   Clear
5:15 AM 10.4 °F -4.1 °F 5.0 °F 79% 30.11 in 10.0 mi WNW 11.5 mph - N/A   Clear
5:30 AM 10.4 °F -4.1 °F 5.0 °F 79% 30.11 in 10.0 mi NW 11.5 mph - N/A   Clear
5:55 AM 10.4 °F -4.1 °F 5.0 °F 79% 30.11 in 10.0 mi NW 11.5 mph - N/A   Clear
6:15 AM 10.4 °F -4.1 °F 5.0 °F 79% 30.12 in 10.0 mi WNW 11.5 mph - N/A   Clear
6:35 AM 6.8 °F -7.8 °F 1.4 °F 79% 30.13 in 10.0 mi West 10.4 mph - N/A   Clear
6:55 AM 6.8 °F -7.8 °F 3.2 °F 85% 30.13 in 10.0 mi WNW 10.4 mph - N/A   Clear
7:15 AM 8.6 °F -6.3 °F 3.2 °F 79% 30.14 in 10.0 mi WNW 11.5 mph - N/A   Clear
7:30 AM 8.6 °F -7.0 °F 3.2 °F 79% 30.14 in 10.0 mi WNW 12.7 mph - N/A   Clear
7:55 AM 8.6 °F -6.3 °F 3.2 °F 79% 30.15 in 10.0 mi WNW 11.5 mph - N/A   Clear
8:15 AM 10.4 °F -2.4 °F 5.0 °F 79% 30.15 in 10.0 mi WNW 9.2 mph - N/A   Clear
8:35 AM 10.4 °F -2.4 °F 6.8 °F 85% 30.16 in 10.0 mi WNW 9.2 mph - N/A   Clear
8:55 AM 12.2 °F -1.0 °F 6.8 °F 79% 30.17 in 10.0 mi WNW 10.4 mph - N/A   Clear
9:15 AM 14.0 °F 1.2 °F 8.6 °F 79% 30.17 in 10.0 mi NW 10.4 mph - N/A   Clear
9:35 AM 15.8 °F 2.7 °F 8.6 °F 73% 30.18 in 10.0 mi WNW 11.5 mph - N/A   Clear
9:55 AM 15.8 °F 2.7 °F 8.6 °F 73% 30.18 in 10.0 mi NW 11.5 mph - N/A   Clear
10:15 AM 15.8 °F 2.1 °F 10.4 °F 79% 30.19 in 10.0 mi WNW 12.7 mph - N/A   Clear
10:35 AM 17.6 °F 4.3 °F 10.4 °F 73% 30.19 in 10.0 mi WNW 12.7 mph - N/A   Clear
10:55 AM 17.6 °F 2.7 °F 10.4 °F 73% 30.19 in 10.0 mi WNW 16.1 mph - N/A   Clear
11:15 AM 19.4 °F 4.5 °F 12.2 °F 74% 30.19 in 10.0 mi WNW 17.3 mph - N/A   Clear
11:35 AM 19.4 °F 4.5 °F 10.4 °F 68% 30.19 in 10.0 mi WNW 17.3 mph - N/A   Clear
11:55 AM 19.4 °F 5.0 °F 12.2 °F 74% 30.18 in 10.0 mi WNW 16.1 mph - N/A   Clear
12:15 PM 19.4 °F 4.1 °F 10.4 °F 68% 30.18 in 10.0 mi NW 18.4 mph - N/A   Clear
12:35 PM 21.2 °F 7.8 °F 10.4 °F 63% 30.17 in 10.0 mi WNW 15.0 mph - N/A   Clear
12:55 PM 21.2 °F 8.3 °F 10.4 °F 63% 30.18 in 10.0 mi WNW 13.8 mph - N/A   Clear
1:15 PM 21.2 °F 7.8 °F 10.4 °F 63% 30.17 in 10.0 mi NW 15.0 mph - N/A   Clear
1:35 PM 21.2 °F 7.8 °F 10.4 °F 63% 30.17 in 10.0 mi NW 15.0 mph - N/A   Clear
1:55 PM 21.2 °F 9.5 °F 12.2 °F 68% 30.18 in 10.0 mi NW 11.5 mph - N/A   Clear
2:15 PM 21.2 °F 10.1 °F 10.4 °F 63% 30.18 in 10.0 mi NW 10.4 mph - N/A   Clear
2:35 PM 21.2 °F 8.9 °F 12.2 °F 68% 30.18 in 10.0 mi NW 12.7 mph - N/A   Clear
2:55 PM 21.2 °F 10.9 °F 12.2 °F 68% 30.18 in 10.0 mi NW 9.2 mph - N/A   Clear
3:15 PM 21.2 °F 13.6 °F 10.4 °F 63% 30.18 in 10.0 mi NW 5.8 mph 13.8 mph N/A   Clear
3:35 PM 21.2 °F 11.7 °F 10.4 °F 63% 30.19 in 10.0 mi NNW 8.1 mph - N/A   Clear
3:55 PM 21.2 °F 13.6 °F 12.2 °F 68% 30.19 in 10.0 mi NNW 5.8 mph - N/A   Clear
4:15 PM 19.4 °F 11.5 °F 10.4 °F 68% 30.19 in 10.0 mi North 5.8 mph - N/A   Clear
4:35 PM 17.6 °F 8.2 °F 10.4 °F 73% 30.19 in 10.0 mi North 6.9 mph - N/A   Clear
4:55 PM 15.8 °F 6.1 °F 8.6 °F 73% 30.20 in 10.0 mi NNW 6.9 mph - N/A   Clear
5:15 PM 14.0 °F 8.2 °F 8.6 °F 79% 30.19 in 10.0 mi North 3.5 mph - N/A   Clear
5:35 PM 15.8 °F - 8.6 °F 73% 30.19 in 10.0 mi Calm Calm - N/A   Clear
5:55 PM 15.8 °F - 8.6 °F 73% 30.20 in 10.0 mi Calm Calm - N/A   Clear
6:15 PM 15.8 °F 10.2 °F 10.4 °F 79% 30.20 in 10.0 mi NNE 3.5 mph - N/A   Clear
6:35 PM 15.8 °F - 10.4 °F 79% 30.20 in 10.0 mi Calm Calm - N/A   Clear
6:55 PM 15.8 °F 10.2 °F 8.6 °F 73% 30.21 in 10.0 mi NNE 3.5 mph - N/A   Clear
7:15 PM 12.2 °F - 6.8 °F 79% 30.21 in 10.0 mi Calm Calm - N/A   Clear
7:35 PM 14.0 °F - 8.6 °F 79% 30.21 in 10.0 mi Calm Calm - N/A   Clear
7:55 PM 12.2 °F - 8.6 °F 85% 30.21 in 10.0 mi Calm Calm - N/A   Clear
8:15 PM 12.2 °F 4.3 °F 8.6 °F 85% 30.22 in 10.0 mi East 4.6 mph - N/A   Clear
8:35 PM 12.2 °F 6.1 °F 8.6 °F 85% 30.22 in 10.0 mi SE 3.5 mph - N/A   Clear
8:55 PM 12.2 °F 4.3 °F 8.6 °F 85% 30.22 in 10.0 mi SE 4.6 mph - N/A   Clear
9:15 PM 10.4 °F 2.2 °F 5.0 °F 79% 30.23 in 10.0 mi SE 4.6 mph - N/A   Clear
9:35 PM 8.6 °F 0.1 °F 5.0 °F 85% 30.23 in 10.0 mi ESE 4.6 mph - N/A   Clear
9:55 PM 8.6 °F -1.3 °F 5.0 °F 85% 30.23 in 10.0 mi SE 5.8 mph - N/A   Clear
10:15 PM 10.4 °F 2.2 °F 5.0 °F 79% 30.23 in 10.0 mi SE 4.6 mph - N/A   Clear
10:35 PM 8.6 °F -2.6 °F 5.0 °F 85% 30.24 in 10.0 mi SE 6.9 mph - N/A   Clear
10:55 PM 8.6 °F -2.6 °F 5.0 °F 85% 30.23 in 10.0 mi SE 6.9 mph - N/A   Clear
11:15 PM 8.6 °F -2.6 °F 5.0 °F 85% 30.23 in 10.0 mi SE 6.9 mph - N/A   Clear
11:35 PM 8.6 °F -3.7 °F 5.0 °F 85% 30.24 in 10.0 mi SSE 8.1 mph - N/A   Clear
11:55 PM 8.6 °F -4.7 °F 5.0 °F 85% 30.24 in 10.0 mi SSE 9.2 mph - N/A   Clear